Tracking 23114 objects as of 15-May-2021
HD Live streaming from Space Station
objects crossing your sky now

COSMOS 1247 DEB

Track COSMOS 1247 DEB now!


NORAD ID: 12992
Int'l Code: 1981-016H
Perigee: 2,628.9 km
Apogee: 37,407.1 km
Inclination: 66.7 °
Period: 711.0 minutes
Semi major axis: 26388 km
RCS: 0.3832 m2 (medium)
Launch date: February 19, 1981
Source: Commonwealth of Independent States (former USSR) (CIS)
Launch site: PLESETSK MISSILE AND SPACE COMPLEX (PKMTR)

Note: This is SATELLITE DEBRIS
aabbcc
Your satellite tracking list
Your tracking list is empty




NASA's NSSDC Master Catalog

Two Line Element Set (TLE):
1 12992U 81016H   21133.70309935  .00000893  00000-0  00000-0 0  9995
2 12992  66.6566 156.0711 6589515  25.4330 356.0648  2.02520223194113
Source of the keplerian elements: AFSPC